Location: Wonder Lake State Park
(41.4960°N, 73.6562°W)
Time: 21:46:41
(UTC-04:00)

Daily predictions for brighter satellites

Satellite Brightness Start Highest point End
(mag) Time Altitude Azimuth Time Altitude Azimuth Time Altitude Azimuth
H-2A R/B 3.9 21:00:00 10° ESE 21:03:33 18° ENE 21:07:08 10° NNE
Cosmos 1741 Rocket 4.1 21:01:01 10° S 21:06:15 63° ESE 21:11:30 10° NNE
Cosmos 1818 3.6 21:03:10 10° NNW 21:08:38 76° ENE 21:14:03 10° SE
YAOGAN 6 2.7 21:05:36 10° SSE 21:09:11 63° ENE 21:12:51 10° N
ATLAS 5 CENTAUR R/B 1.8 21:06:42 10° SSW 21:11:20 85° SE 21:16:24 10° NE
Cosmos 1726 3.9 21:12:11 10° NNE 21:14:45 18° ENE 21:17:17 10° ESE
RESURS DK-1 3.8 21:13:47 10° N 21:17:19 26° NE 21:20:50 10° ESE
Cosmos 1076 Rocket 3.8 21:15:03 10° S 21:19:17 51° E 21:23:32 10° NNE
Spot 1 4.2 21:16:17 10° S 21:20:21 73° WSW 21:24:36 10° NNW
Cosmos 1802 Rocket 4.3 21:14:51 10° N 21:20:47 48° ENE 21:26:41 10° SSE
Cosmos 1727 Rocket 4.4 21:15:19 10° SSW 21:21:37 73° W 21:27:59 10° N
Cosmos 1408 Rocket 4.3 21:18:48 10° SSE 21:22:41 34° E 21:26:37 10° NNE
Cosmos 2237 Rocket 3.9 21:22:34 10° NW 21:27:20 29° WSW 21:32:04 10° SSW
ERBS 4.2 21:27:14 10° NNW 21:29:58 22° NNE 21:32:41 10° E
Cosmos 1939 Rocket 4.0 21:26:57 10° S 21:30:46 44° W 21:34:41 10° NNW
Cosmos 1340 Rocket 4.0 21:29:12 10° SSW 21:33:05 46° WNW 21:37:01 10° N
Cosmos 2221 2.7 21:28:51 10° N 21:33:15 76° W 21:37:37 10° S
CZ-4B DEB 3.6 21:31:50 10° S 21:34:40 43° W 21:37:32 10° NNW
Cosmos 1603 4.1 21:30:21 10° NNW 21:35:51 49° ENE 21:40:30 14° SE
Envisat 4.4 21:31:15 10° SSW 21:35:56 37° W 21:40:39 10° NNW
Meteor 1-29 3.9 21:35:03 10° N 21:38:23 51° WNW 21:41:44 10° SSW
Tiangong 1 1.1 21:36:27 10° W 21:39:14 64° N 21:42:00 10° E
Cosmos 371 Rocket 4.2 21:39:18 10° N 21:43:45 36° ENE 21:47:08 16° SE
Cosmos 1674 2.8 21:40:13 10° SSW 21:43:58 74° W 21:47:44 10° N
Cosmos 2208 Rocket 4.3 21:38:57 10° NNW 21:44:17 72° WSW 21:49:33 10° S
MetOp-A 4.1 21:40:22 11° SSE 21:45:33 79° ENE 21:50:56 10° N
Cosmos 2016 Rocket 4.1 21:41:13 10° N 21:47:27 65° E 21:52:56 13° SSE
ARGOS 3.3 21:42:43 13° SSE 21:47:29 64° ENE 21:52:51 10° N
Okean 3 Rocket 4.4 21:43:31 10° SSW 21:47:55 54° W 21:52:20 10° N
CZ-3B R/B 3.9 21:46:58 10° SW 21:50:00 81° SE 22:00:23 10° NE
Cosmos 1943 4.2 21:45:46 10° N 21:50:54 34° ENE 21:54:57 15° ESE
SPOT 5 3.1 21:47:02 15° SSE 21:50:57 61° ENE 21:56:00 10° N
Lacrosse 5 2.1 21:46:25 10° NW 21:51:28 66° NE 21:55:19 17° ESE
Cosmos 1763 Rocket 4.3 21:47:23 10° N 21:52:06 36° ENE 21:55:27 17° ESE
Cosmos 1908 3.8 21:48:38 10° NNW 21:52:26 56° W 21:56:13 10° S
SL-16 R/B 3.2 21:47:10 10° NW 21:52:31 43° WSW 21:57:48 10° S
SPOT 1/Viking Rocket 3.8 21:54:30 18° SE 21:58:14 53° ENE 22:03:14 10° N
Cosmos 1766 Rocket 3.6 21:55:39 10° S 21:59:58 83° W 22:04:20 10° N
KORONAS-FOTON 4.0 21:57:23 10° SSW 22:01:10 69° W 22:04:57 10° N
Cosmos 1242 Rocket 3.7 22:00:21 10° NNW 22:03:52 41° W 22:07:16 11° SSW
Abrixas rocket 3.0 22:00:45 10° NW 22:03:54 45° NNE 22:06:04 18° E
Cosmos 1328 Rocket 3.7 22:01:04 10° N 22:05:22 57° E 22:07:53 23° SSE
USA 245 3.2 22:07:27 23° S 22:09:31 83° W 22:13:45 10° NNW
Cosmos 1515 Rocket 3.9 22:07:04 10° N 22:11:16 47° ENE 22:13:24 26° SE
Landsat 7 4.3 22:08:35 22° SE 22:11:18 46° ENE 22:15:52 10° N
YAOGAN 11 4.2 22:08:20 19° S 22:11:36 81° WSW 22:16:11 10° NNW
Cosmos 2233 Rocket 4.5 22:05:51 10° N 22:11:45 44° ENE 22:15:25 22° SE
Cosmos 1151 Rocket 3.8 22:07:42 10° N 22:11:47 37° ENE 22:13:43 24° SE
H-2A R/B 3.4 22:13:53 19° ESE 22:15:45 26° ENE 22:19:16 10° NNE
USA 234 3.2 22:09:26 10° NE 22:16:00 72° SE 22:22:31 10° SW
Cosmos 1743 Rocket 3.5 22:13:15 21° S 22:16:04 65° E 22:20:21 10° NNE
Cosmos 2228 Rocket 3.1 22:14:53 10° N 22:19:30 76° E 22:22:04 26° SSE
Cosmos 468 Rocket 4.2 22:17:39 10° NNW 22:22:44 65° WSW 22:26:04 21° S
Cosmos 1703 4.2 22:22:24 28° ESE 22:23:16 31° E 22:26:48 10° NNE
SL-08 RB Rocket 3.9 22:21:53 21° S 22:24:54 68° WSW 22:29:31 10° NNW
Terra 2.3 22:24:01 26° SE 22:26:15 45° ENE 22:30:47 10° N
ERS-1 Rocket 4.4 22:22:08 10° SSW 22:26:39 33° W 22:31:12 10° NNW
Meteor 1-11 4.4 22:23:46 21° SSE 22:27:35 61° E 22:33:19 10° NNE
Nimbus 7 Rocket 4.4 22:25:42 10° NNE 22:31:45 88° WNW 22:37:30 11° SSW
H-2A ROCKET BODY 3.8 22:28:44 10° SSW 22:32:56 26° SE 22:45:08 10° E
Cosmos 1503 Rocket 4.5 22:32:17 29° SSE 22:34:10 40° ESE 22:39:00 10° NE
Cosmos 332 Rocket 4.2 22:29:28 10° NNW 22:34:19 60° WSW 22:37:02 25° S
Cosmos 2123 Rocket 4.3 22:36:06 10° SSW 22:42:13 64° W 22:48:24 10° N
H-2A R/B 2.4 22:39:05 23° S 22:42:22 64° WSW 22:47:47 10° NNW
Meteor 1-27 4.2 22:37:01 10° N 22:42:51 77° E 22:45:45 31° SSE
Meteor 2-10 4.5 22:37:22 10° NNW 22:42:56 66° W 22:46:32 23° S
Cosmos 304 Rocket 4.4 22:40:34 10° N 22:45:10 44° ENE 22:46:52 31° ESE
Cosmos 1626 2.2 22:44:38 49° SE 22:45:17 59° E 22:48:58 10° NNE
Cosmos 2058 2.8 22:44:53 38° S 22:46:24 76° E 22:50:37 10° N
Cosmos 1726 3.9 22:46:57 10° NNW 22:50:04 26° W 22:52:04 16° SW
CZ-4B R/B 4.2 22:45:22 10° NNE 22:50:16 38° E 22:51:29 33° SE
Cosmos 2263 Rocket 2.0 22:46:57 19° SSW 22:51:02 80° ESE 22:56:39 10° NNE
Cosmos 540 Rocket 4.0 22:46:43 10° N 22:51:41 45° ENE 22:53:35 32° ESE
Cosmos 1300 4.1 22:50:21 10° NNW 22:53:49 33° W 22:55:37 21° SW
RESURS DK-1 3.9 22:51:46 10° NW 22:55:19 28° WSW 22:56:54 22° SW
Spot 4 4.4 22:55:05 34° ESE 22:56:40 47° ENE 23:01:21 10° N
Cosmos 2285 Rocket 4.1 22:52:30 10° NNW 22:58:49 65° ENE 23:01:42 34° SE
Sich 1 4.2 22:59:55 27° E 22:59:57 27° E 23:03:35 10° NNE
ERBS 3.1 23:03:32 10° WNW 23:06:28 39° WSW 23:06:28 39° WSW
deb Chang Zheng 4 3.5 23:04:04 10° NNE 23:08:28 77° ESE 23:09:31 51° S
PSLV R/B 3.7 23:09:22 49° NNE 23:09:22 49° NNE 23:11:37 10° N
DELTA 2 DEB (DPAF) 4.5 23:11:06 44° ESE 23:12:00 53° ENE 23:16:22 10° N
Cosmos 2151 3.9 23:10:59 25° SW 23:13:06 45° WNW 23:17:15 10° N
Cosmos 1707 Rocket 4.0 23:08:55 10° N 23:13:15 47° ENE 23:13:55 43° ESE
Tiangong 1 2.8 23:12:06 10° WNW 23:13:24 24° W 23:13:24 24° W
Cosmos 1354 Rocket 4.0 23:16:06 30° SSW 23:18:44 79° WNW 23:24:00 10° NNE
Cosmos 1844 Rocket 3.5 23:24:43 32° ESE 23:24:51 32° ESE 23:29:44 10° NE
Cosmos 1072 Rocket 4.5 23:19:19 10° N 23:25:41 81° E 23:28:03 42° SSE
Cosmos 1455 2.3 23:23:29 10° NNW 23:27:19 64° W 23:27:33 62° WSW
CZ-4C R/B 2.3 23:28:14 45° SE 23:28:32 46° ESE 23:34:02 10° NE
Cosmos 1666 Rocket 3.6 23:28:28 58° ESE 23:28:47 60° E 23:33:11 10° NNE
Cosmos 1464 Rocket 3.9 23:24:27 10° N 23:30:39 80° E 23:32:45 44° SSE
Lacrosse 5 3.5 23:30:16 10° WNW 23:33:59 21° WSW 23:34:30 21° SW
Cosmos 1943 4.2 23:29:49 10° NW 23:34:55 36° WSW 23:36:46 28° SW
Cosmos 1869 3.2 23:34:03 10° N 23:37:55 79° ENE 23:37:55 79° ENE
Cosmos 1805 Rocket 3.7 23:39:13 56° SW 23:39:55 66° W 23:44:15 10° N
Cosmos 1633 Rocket 2.9 23:44:55 74° ESE 23:44:59 74° E 23:49:22 10° NNE
CZ-4C R/B 3.5 23:46:43 68° SW 23:46:59 70° WSW 23:51:24 10° NNW
Cosmos 967 Rocket 4.4 23:41:47 10° NNW 23:48:11 89° SW 23:50:08 48° SSE
Cosmos 783 Rocket 4.4 23:43:14 10° NNW 23:48:36 89° E 23:49:34 61° SSE
Cosmos 1400 Rocket 3.7 23:49:33 40° ENE 23:49:33 40° ENE 23:52:56 10° NNE
H-2A R/B 3.4 23:51:01 26° WSW 23:51:39 28° W 23:55:19 10° NW
SME Rocket 3.1 23:52:50 60° WSW 23:52:56 60° WSW 23:57:24 10° NNW
